Wetbulb
77.32 77.37 77.34 77.27 77.38 77.74 77.33 77.63 77.62 77.66 77.83 77.89 78.52 78.43 78.85 77.81 77.36 78.02 77.24 76.77 75.32 74.52 74.46 73.74 73.88 75.59 76.73 76.99 76.09 77.23 76.00 73.92 69.99 70.01 75.95 74.24 75.84 75.27 74.69 77.47 76.87 76.89 75.07
77.74 77.66 77.43 77.75 77.81 77.21 77.18 77.47 77.88 77.62 78.09 78.38 78.40 78.46 78.66 77.74 77.65 77.17 76.40 76.08 74.15 73.47 74.10 74.59 74.86 75.24 75.05 75.12 76.33 75.05 75.30 75.02 73.26 71.62 75.70 72.88 72.79 73.99 75.84 75.44 77.43 76.04 75.28
77.76 77.45 77.51 77.46 77.48 77.47 77.46 77.63 77.92 78.05 78.25 78.04 77.85 78.01 78.09 77.57 77.22 76.94 76.76 75.44 74.42 74.42 75.02 74.21 74.82 74.84 74.23 74.47 75.28 73.70 74.06 74.22 73.63 72.04 71.04 76.32 74.28 75.30 73.73 74.93 74.16 73.89 77.03
77.63 77.46 77.58 77.72 78.10 78.15 78.44 78.40 78.27 78.54 78.58 78.61 78.84 79.01 78.63 78.10 77.27 76.27 75.87 75.61 74.92 74.87 75.86 75.38 74.84 74.57 74.37 74.68 74.58 74.21 73.18 72.10 72.15 72.22 71.54 70.68 73.45 75.85 76.95 76.32 73.55 74.90 73.76
78.71 77.92 78.13 78.95 79.39 79.27 79.31 79.50 79.40 79.50 79.36 79.71 79.30 78.38 78.36 78.16 77.72 76.49 75.82 75.94 74.98 75.13 75.90 76.06 75.59 75.08 72.73 73.10 74.60 75.08 75.39 73.04 71.02 71.30 72.26 71.43 70.97 71.20 72.69 74.07 74.42 75.73 76.20
78.97 78.38 79.47 79.56 80.48 79.59 79.89 79.73 79.61 79.75 79.91 79.86 79.21 78.90 77.84 77.70 70.92 71.22 75.20 75.78 74.92 74.58 74.54 75.75 76.26 73.97 73.24 70.47 69.76 69.26 70.90 72.31 71.89 71.18 69.61 68.86 68.97 69.74 71.27 71.76 72.99 71.76 69.19
79.19 79.54 79.98 80.14 79.87 80.21 80.49 79.97 79.33 79.46 79.83 79.48 78.68 78.54 77.82 77.84 67.94 69.05 71.13 76.47 74.88 75.07 75.15 75.01 74.26 75.46 74.57 76.36 70.32 68.48 67.89 67.38 67.96 72.16 69.68 71.46 71.64 71.25 71.82 70.50 71.74 71.70 70.93
78.87 79.35 80.05 80.52 80.24 80.49 80.37 79.84 79.78 79.50 79.05 78.58 78.24 78.37 78.01 77.56 66.62 66.55 69.24 76.01 75.56 75.70 75.62 75.34 75.53 75.97 75.73 75.44 75.24 74.44 74.39 74.03 72.94 72.78 73.45 74.73 74.64 74.44 73.41 72.27 70.64 70.95 71.88
79.16 79.46 79.94 80.43 80.52 80.37 79.63 79.66 79.59 79.30 78.86 78.77 78.63 78.32 77.59 77.57 65.23 64.85 69.39 75.28 75.03 75.51 76.01 76.34 76.56 75.98 70.53 67.36 74.70 74.06 74.29 74.15 69.60 68.31 66.95 65.65 66.26 66.67 69.41 73.57 72.23 70.36 68.75
77.56 80.18 80.98 80.81 80.86 80.40 79.95 80.61 79.87 79.47 78.96 78.27 78.20 78.35 73.97 77.67 64.22 63.56 68.02 75.18 74.89 74.68 76.64 76.76 68.81 73.10 64.92 63.58 74.40 74.12 73.17 73.18 73.95 73.38 72.94 69.95 67.99 70.43 65.29 72.66 72.69 67.98 68.03
79.50 79.78 80.70 80.94 81.25 81.28 81.19 80.07 79.64 79.27 79.38 78.55 78.13 78.46 78.24 76.84 75.91 62.44 61.95 75.51 74.94 76.16 76.57 76.19 76.45 64.65 61.77 59.88 63.33 74.68 72.35 73.08 72.66 73.14 72.77 72.55 72.87 73.15 72.79 72.67 73.38 73.30 71.21
80.07 78.22 81.27 81.08 79.83 79.57 80.62 79.62 79.59 79.12 78.60 78.14 77.73 77.62 77.58 78.45 67.65 62.29 61.00 62.28 70.08 76.95 74.04 78.10 76.71 62.91 59.26 58.33 61.38 64.35 60.82 64.32 72.62 72.72 73.20 71.49 71.22 71.57 72.20 72.99 74.07 73.75 73.50
78.94 79.50 79.67 80.20 80.32 80.01 79.58 79.10 78.06 78.64 77.11 76.77 76.73 76.32 76.97 77.01 78.08 62.27 59.96 59.66 60.28 68.90 76.43 69.56 62.99 61.75 57.91 59.27 58.39 59.22 59.72 70.21 71.29 71.06 71.71 72.09 72.12 72.90 73.38 73.45 73.94 75.22 74.70
78.61 78.62 77.91 78.74 77.48 79.78 79.06 78.70 78.08 77.09 76.55 76.21 75.99 77.34 76.67 76.05 76.58 78.25 74.54 70.50 61.04 64.88 67.00 69.83 67.28 64.66 63.15 63.52 67.50 65.53 69.74 71.34 70.46 70.36 71.28 73.24 74.34 72.50 73.52 72.69 71.77 71.22 71.03
76.97 74.74 72.60 68.93 67.69 68.07 63.72 63.12 74.23 66.97 67.01 76.48 76.48 76.46 74.71 74.51 72.08 61.36 64.63 72.59 72.06 67.89 68.46 71.87 70.85 70.45 72.01 72.02 71.51 70.94 71.77 71.30 69.97 70.37 70.21 70.11 68.99 68.73 69.20 69.71 69.74 68.45 67.92
72.28 71.89 68.68 67.28 67.74 69.23 67.55 63.75 54.79 52.50 49.30 48.65 49.01 61.20 67.09 54.44 51.42 50.37 50.01 51.82 53.46 55.09 66.61 68.94 68.43 68.19 69.20 68.77 70.95 71.04 69.24 69.69 70.23 69.29 68.52 67.78 66.23 66.32 68.70 70.38 70.22 68.56 68.25
66.34 68.89 69.38 67.22 68.55 68.10 67.62 67.49 64.94 58.63 48.99 47.71 47.22 47.94 48.13 46.86 47.66 47.84 48.02 49.29 50.92 54.84 69.37 69.60 68.58 68.76 69.26 69.42 67.78 68.03 69.41 71.84 72.60 71.19 68.74 67.97 67.77 67.06 66.38 68.09 68.23 65.40 66.35
71.34 61.69 68.94 70.78 69.76 69.99 69.66 69.73 68.61 67.55 67.31 66.20 52.02 53.79 47.06 47.11 47.47 47.66 47.84 50.31 65.98 63.97 68.45 66.26 65.84 66.33 66.66 66.22 66.15 66.64 67.18 67.60 68.24 68.55 67.93 68.02 67.56 67.78 67.41 66.41 66.78 63.94 63.87
70.43 70.81 71.32 70.95 70.44 69.14 71.09 70.50 69.99 69.87 69.08 67.64 66.11 56.93 54.52 48.02 47.47 48.38 50.74 67.20 67.83 67.94 67.03 65.14 65.29 65.82 66.42 67.48 67.51 65.83 65.73 64.88 65.45 66.73 67.20 66.97 66.81 66.63 67.29 67.05 67.02 60.43 62.23
71.76 65.14 68.54 70.92 69.91 70.28 69.83 69.23 68.60 68.96 68.02 67.69 66.52 66.02 66.17 63.68 65.34 65.37 65.88 66.23 65.29 64.34 63.73 63.60 64.48 65.73 64.27 64.34 64.57 64.95 65.85 65.56 65.88 65.80 65.25 64.29 64.38 64.40 63.47 64.55 65.30 64.01 63.88
71.01 70.76 66.57 70.73 70.05 69.10 69.18 68.26 67.67 67.46 66.99 65.54 65.22 61.80 48.11 66.58 65.61 65.20 65.12 65.29 65.17 64.89 65.13 63.96 64.69 65.36 65.40 65.30 65.15 65.63 65.16 65.10 64.49 62.74 63.23 65.15 65.53 65.07 66.68 64.68 65.33 65.36 63.80
69.64 69.27 69.43 69.38 68.96 68.74 68.69 67.91 66.99 66.21 66.18 65.05 64.59 62.49 49.77 66.12 64.99 64.74 64.73 64.82 65.46 65.83 66.05 65.42 64.54 64.82 64.95 64.53 64.26 63.98 63.05 63.10 63.78 63.72 63.73 63.78 65.24 64.61 65.09 64.69 63.45 62.07 60.16
68.96 68.35 68.16 68.09 67.79 63.53 66.58 66.51 66.86 66.95 66.21 64.60 63.65 64.14 65.83 63.84 63.89 64.29 64.20 64.63 64.89 65.08 65.82 64.96 64.43 64.34 64.17 63.27 63.64 61.91 60.86 61.05 61.73 63.79 63.26 62.74 62.58 64.72 64.54 63.52 62.84 61.82 59.72
68.19 68.02 67.37 67.37 67.40 66.91 67.27 67.27 66.70 61.87 66.15 65.92 66.59 65.82 64.67 63.55 64.04 64.51 64.81 64.98 65.10 65.12 65.30 64.34 61.52 61.53 60.75 60.14 59.57 58.65 53.80 49.83 54.63 62.70 63.73 63.45 62.78 60.50 61.94 62.77 62.51 62.90 63.10
66.13 65.20 64.40 64.79 65.27 65.84 65.91 64.85 64.55 64.28 63.72 63.83 63.70 63.67 63.59 63.59 63.27 62.91 63.27 63.74 63.42 63.19 62.58 61.90 59.89 59.24 57.90 55.40 53.89 52.32 41.13 34.45 46.97 40.35 58.20 62.10 63.46 63.69 62.28 61.95 61.51 61.33 62.49
65.05 64.92 64.36 64.09 63.83 63.72 63.09 62.67 62.71 62.90 62.46 62.13 61.74 61.35 60.61 59.64 58.97 58.52 58.10 57.75 58.32 58.74 58.73 57.98 56.95 55.38 53.85 51.92 48.21 38.73 33.20 33.69 40.99 33.57 49.45 59.50 59.42 60.14 61.18 60.87 61.77 61.55 61.26
MSLP
1007.55 1008.12 1008.90 1009.46 1010.16 1010.89 1011.10 1011.48 1011.92 1012.24 1012.49 1012.93 1013.34 1013.66 1013.76 1014.06 1014.34 1014.72 1015.01 1015.29 1015.70 1016.03 1016.25 1016.37 1016.52 1016.66 1016.83 1017.05 1017.27 1017.45 1017.46 1017.69 1017.55 1016.97 1016.21 1017.02 1016.97 1017.41 1016.96 1017.09 1017.10 1017.22 1017.31
1006.62 1007.39 1007.99 1008.76 1009.35 1009.73 1010.24 1010.58 1011.08 1011.47 1011.82 1012.30 1012.79 1013.16 1013.45 1013.70 1014.17 1014.41 1014.59 1014.97 1015.59 1015.79 1015.81 1015.81 1015.81 1016.11 1016.16 1016.32 1016.76 1016.97 1016.98 1017.15 1017.24 1016.79 1016.21 1016.47 1016.97 1016.81 1016.56 1016.82 1016.73 1016.60 1016.47
1005.81 1006.59 1007.27 1007.92 1008.49 1008.84 1009.24 1009.76 1010.23 1010.86 1011.30 1011.63 1012.22 1012.59 1012.91 1013.24 1013.74 1013.91 1014.19 1014.56 1014.98 1015.14 1015.12 1015.33 1015.26 1015.35 1015.59 1015.93 1016.18 1016.20 1016.53 1016.77 1016.91 1016.84 1016.43 1016.20 1016.04 1016.16 1016.30 1016.38 1016.38 1016.34 1015.93
1005.06 1005.62 1006.34 1006.99 1007.45 1008.00 1008.63 1009.08 1009.42 1010.09 1010.61 1010.89 1011.18 1011.58 1011.97 1012.39 1012.91 1013.41 1013.76 1014.08 1014.31 1014.44 1014.56 1014.74 1014.97 1015.20 1015.29 1015.41 1015.58 1016.01 1016.32 1016.40 1016.46 1016.38 1016.24 1016.06 1015.83 1015.62 1015.55 1015.44 1015.60 1015.51 1015.53
1004.73 1005.08 1005.59 1006.18 1006.66 1007.36 1008.07 1008.67 1009.13 1009.54 1009.88 1010.22 1010.57 1011.08 1011.64 1011.99 1012.29 1013.02 1013.38 1013.49 1013.76 1013.92 1013.91 1014.17 1014.39 1014.58 1014.87 1015.14 1015.50 1015.55 1015.42 1015.56 1015.57 1015.31 1015.44 1015.55 1015.46 1015.49 1015.25 1014.78 1014.81 1014.52 1014.87
1004.77 1005.06 1005.41 1006.00 1006.39 1006.98 1007.68 1008.29 1008.76 1009.34 1009.70 1009.93 1010.19 1010.71 1011.19 1011.32 1011.58 1012.32 1012.74 1012.98 1013.47 1013.63 1013.65 1013.65 1013.91 1014.34 1014.64 1014.97 1015.22 1015.34 1015.44 1015.41 1015.27 1015.37 1015.33 1015.14 1015.03 1014.99 1014.91 1014.84 1014.84 1014.88 1014.86
1004.35 1005.13 1005.32 1005.74 1006.06 1006.56 1007.27 1007.99 1008.34 1008.76 1009.20 1009.59 1009.85 1010.14 1010.56 1010.99 1011.52 1012.18 1012.66 1012.24 1012.73 1013.01 1013.07 1013.07 1013.28 1012.98 1013.76 1014.02 1014.68 1015.01 1015.11 1015.06 1015.14 1014.97 1014.83 1014.45 1014.32 1014.38 1014.43 1014.48 1014.21 1014.47 1014.26
1003.75 1004.46 1005.20 1005.56 1005.55 1006.06 1006.53 1007.26 1007.84 1008.29 1008.84 1009.25 1009.56 1009.91 1010.31 1010.69 1011.42 1012.05 1012.58 1012.45 1012.08 1012.22 1012.37 1012.54 1012.86 1012.60 1012.94 1013.50 1013.70 1013.76 1013.68 1013.66 1014.09 1014.01 1014.05 1013.72 1013.76 1013.74 1013.88 1013.96 1014.06 1013.96 1014.06
1002.44 1003.30 1004.56 1005.22 1005.02 1005.49 1006.07 1006.59 1007.24 1007.76 1008.41 1008.81 1009.11 1009.50 1009.90 1010.25 1011.11 1011.75 1012.31 1012.06 1011.77 1011.81 1012.03 1012.06 1012.10 1012.20 1012.44 1013.10 1013.42 1013.14 1012.97 1012.74 1012.87 1013.35 1013.60 1013.79 1013.74 1013.63 1013.70 1013.63 1013.55 1013.72 1013.59
1001.04 1002.59 1003.79 1004.56 1005.25 1004.48 1005.42 1006.05 1006.74 1007.46 1007.85 1008.19 1008.68 1009.15 1009.61 1009.92 1010.73 1011.36 1011.82 1011.17 1010.83 1011.03 1011.06 1011.49 1011.88 1012.07 1012.28 1012.68 1012.90 1012.66 1012.57 1012.23 1012.15 1012.43 1013.21 1013.41 1013.42 1013.20 1013.71 1013.28 1012.83 1013.12 1013.10
1001.28 1001.85 1003.77 1004.22 1005.00 1004.43 1004.78 1005.47 1006.17 1006.97 1007.30 1008.06 1008.46 1008.73 1009.09 1009.70 1009.97 1010.79 1011.32 1011.04 1010.35 1010.22 1010.46 1010.97 1011.12 1011.32 1011.98 1012.50 1012.60 1012.22 1012.07 1012.07 1012.29 1012.29 1012.04 1011.83 1011.72 1011.74 1011.94 1012.18 1011.96 1012.34 1012.39
1001.10 1001.70 1002.80 1003.95 1004.85 1004.53 1004.81 1005.60 1006.30 1006.85 1007.48 1007.82 1008.24 1008.49 1008.48 1009.13 1009.77 1010.39 1010.74 1010.98 1010.55 1010.71 1010.42 1010.33 1010.70 1011.05 1011.40 1011.93 1012.38 1012.20 1012.32 1012.61 1012.07 1011.79 1011.85 1011.06 1010.62 1010.50 1010.41 1010.48 1011.01 1011.22 1010.97
1001.70 1002.29 1002.63 1004.34 1005.35 1005.75 1004.82 1005.30 1005.98 1006.67 1006.63 1007.21 1007.64 1007.76 1008.02 1008.79 1009.48 1010.09 1010.56 1010.74 1010.98 1011.25 1010.63 1010.88 1011.01 1011.19 1011.66 1011.94 1012.00 1012.19 1012.23 1012.28 1011.66 1011.16 1011.09 1010.78 1010.25 1010.09 1010.09 1010.24 1010.45 1010.70 1010.87
1001.98 1001.34 1003.33 1004.99 1005.78 1006.04 1005.72 1006.06 1006.05 1006.44 1006.82 1007.19 1007.49 1007.91 1008.21 1008.48 1008.77 1009.38 1010.08 1010.54 1010.81 1010.86 1010.80 1010.72 1010.61 1010.96 1011.04 1011.08 1011.23 1011.58 1011.49 1011.35 1011.35 1010.92 1010.37 1010.67 1010.93 1010.69 1010.61 1010.45 1010.02 1009.83 1010.10
1001.25 1001.26 1002.37 1005.05 1004.28 1006.14 1008.72 1008.95 1007.82 1008.35 1008.41 1007.46 1008.04 1008.24 1008.57 1008.83 1009.94 1010.70 1010.69 1010.38 1010.50 1010.60 1010.68 1010.45 1010.42 1010.12 1009.69 1009.75 1009.80 1010.39 1010.36 1010.70 1010.86 1010.60 1010.51 1010.40 1010.59 1010.73 1010.64 1010.45 1010.42 1010.33 1010.03
1002.07 1001.82 1003.10 1004.03 1003.44 1006.14 1009.44 1009.44 1010.09 1009.78 1009.76 1009.34 1009.45 1009.30 1009.64 1010.56 1011.14 1011.46 1011.49 1011.36 1011.18 1011.06 1010.94 1010.41 1010.18 1010.09 1009.88 1009.94 1009.78 1010.07 1010.23 1010.13 1010.19 1010.65 1010.71 1010.76 1010.79 1010.65 1010.34 1010.14 1010.09 1010.12 1009.81
1001.06 1002.96 1003.80 1003.01 1003.59 1004.89 1005.63 1006.51 1009.43 1010.52 1011.14 1010.66 1010.30 1010.43 1010.41 1011.02 1011.35 1011.57 1011.64 1011.54 1011.39 1011.24 1010.56 1010.31 1010.12 1009.95 1009.84 1010.09 1010.47 1010.40 1010.10 1010.06 1010.10 1010.03 1010.35 1010.60 1010.68 1010.57 1010.51 1009.98 1010.02 1010.10 1009.51
1001.38 1001.25 1002.81 1003.51 1004.28 1003.47 1003.79 1004.68 1007.64 1009.02 1009.74 1010.23 1011.04 1010.95 1011.01 1011.08 1011.17 1011.33 1011.43 1011.47 1011.20 1011.03 1010.76 1010.73 1010.67 1010.61 1010.58 1010.67 1010.75 1010.73 1010.70 1010.67 1010.49 1010.31 1010.27 1010.27 1010.15 1010.09 1009.85 1009.94 1009.97 1010.19 1010.07
1002.10 1002.10 1002.61 1002.96 1003.41 1003.93 1005.24 1005.97 1006.63 1007.09 1008.02 1009.06 1010.14 1010.91 1011.13 1011.20 1011.03 1010.94 1011.22 1010.71 1010.16 1009.92 1010.11 1010.66 1010.74 1010.56 1010.47 1010.30 1010.42 1010.64 1010.59 1010.47 1010.35 1010.30 1010.18 1010.27 1010.09 1009.89 1009.52 1009.19 1008.93 1009.13 1009.28
1002.15 1002.51 1002.91 1003.41 1003.97 1004.99 1005.43 1006.04 1006.12 1007.00 1007.80 1008.32 1008.89 1009.54 1009.98 1010.51 1010.11 1010.21 1010.75 1010.78 1010.63 1011.05 1011.39 1011.40 1011.17 1011.13 1011.42 1011.37 1011.40 1011.30 1011.13 1010.68 1010.30 1010.12 1010.34 1010.40 1010.37 1010.15 1009.84 1009.50 1009.41 1009.40 1009.33
1002.08 1002.78 1003.19 1004.00 1004.71 1005.01 1005.45 1005.59 1006.15 1006.95 1007.78 1008.56 1009.13 1010.17 1011.17 1010.27 1010.01 1010.40 1010.83 1011.20 1011.00 1010.82 1011.00 1011.21 1011.12 1011.16 1011.18 1011.05 1011.02 1010.86 1010.50 1010.84 1011.04 1010.56 1010.47 1009.82 1009.43 1009.55 1009.40 1009.49 1009.21 1009.16 1009.26
1002.56 1003.01 1003.16 1004.20 1004.82 1004.98 1005.69 1006.18 1006.69 1007.56 1008.49 1009.15 1009.74 1010.77 1011.35 1010.05 1010.35 1010.52 1010.90 1011.18 1011.22 1011.35 1011.29 1011.11 1010.95 1011.03 1011.00 1011.10 1011.11 1010.60 1010.50 1010.38 1010.48 1010.31 1009.90 1009.55 1009.36 1009.32 1009.13 1009.12 1009.09 1009.22 1009.33
1002.66 1003.37 1004.24 1004.81 1005.40 1005.95 1006.27 1006.55 1007.15 1008.04 1008.75 1009.45 1010.01 1010.85 1010.78 1010.48 1010.40 1010.66 1011.05 1011.31 1011.39 1011.41 1011.40 1011.61 1011.88 1011.62 1011.70 1011.89 1011.70 1011.97 1011.96 1011.76 1011.19 1010.58 1009.94 1009.48 1009.16 1009.23 1009.12 1009.13 1009.06 1009.03 1009.05
1003.32 1003.87 1004.66 1005.30 1005.73 1006.13 1006.66 1007.36 1008.09 1008.82 1009.28 1009.77 1010.67 1010.71 1010.33 1010.61 1010.63 1011.10 1011.58 1011.58 1011.48 1011.65 1011.64 1011.94 1012.84 1013.04 1013.05 1012.71 1012.67 1012.78 1013.26 1013.63 1012.76 1011.17 1010.67 1009.87 1008.77 1008.47 1008.48 1008.37 1008.39 1008.23 1008.07
1003.90 1004.78 1005.51 1005.57 1005.96 1006.65 1007.37 1007.92 1008.50 1008.97 1009.46 1010.37 1010.96 1011.15 1011.16 1011.64 1011.96 1012.53 1012.87 1012.63 1012.68 1012.71 1012.58 1012.74 1013.38 1013.49 1013.80 1014.17 1014.36 1014.46 1014.72 1014.45 1013.40 1012.92 1011.04 1010.14 1009.31 1008.68 1008.03 1007.50 1007.34 1007.42 1007.53
1004.53 1005.12 1005.76 1006.28 1006.80 1007.36 1008.22 1009.00 1009.48 1009.97 1010.57 1011.12 1011.63 1011.98 1012.15 1012.91 1013.55 1013.78 1013.86 1013.76 1013.19 1012.95 1013.26 1013.52 1014.35 1014.43 1014.44 1014.61 1015.17 1015.56 1015.21 1014.56 1013.84 1013.06 1011.87 1010.17 1009.76 1009.23 1008.64 1008.52 1008.17 1007.79 1007.51
Wind_Speed
17 16 16 15 16 15 15 15 15 15 13 13 13 12 12 11 11 10 9 9 10 10 10 9 11 11 7 7 6 7 7 7 8 9 7 3 9 8 10 10 11 12 12
16 16 16 15 14 15 15 16 14 15 13 13 13 12 10 9 9 11 10 8 9 10 11 11 12 8 11 9 7 10 9 9 7 13 9 7 9 10 12 7 10 10 11
17 17 16 15 16 15 15 14 14 13 12 12 12 12 12 10 11 11 10 10 10 10 9 9 11 9 9 8 9 8 6 7 6 7 9 7 9 8 9 10 10 10 9
17 17 16 16 16 14 13 13 13 13 13 13 12 12 12 11 12 12 11 11 10 9 9 9 9 10 9 9 8 7 8 7 7 8 7 8 9 8 8 8 8 11 9
14 15 16 14 13 13 12 11 11 12 12 12 12 10 11 11 10 12 11 11 10 10 10 10 10 10 8 6 5 7 7 8 8 10 6 7 9 7 8 10 9 8 9
13 14 13 13 12 12 12 12 11 11 12 12 11 12 12 9 9 11 9 9 9 9 8 9 9 11 10 8 8 8 8 10 11 6 7 7 8 8 8 7 8 7 8
14 12 13 14 15 14 13 12 12 12 12 11 11 10 10 11 13 12 12 9 9 9 10 9 8 9 10 10 13 10 10 12 13 11 9 10 11 9 8 9 8 9 8
14 13 13 14 16 15 15 15 13 12 11 10 10 10 9 8 13 12 11 12 9 9 10 9 9 11 10 10 10 11 11 9 11 9 10 10 9 8 9 8 7 8 5
15 16 15 15 16 17 16 15 13 12 11 10 9 10 10 8 13 12 12 11 11 10 10 11 11 11 8 11 11 11 10 9 9 8 6 7 6 5 7 6 6 6 5
14 13 15 15 16 17 15 14 12 11 10 9 9 9 9 9 13 13 13 10 10 9 11 12 12 13 5 13 12 11 11 10 8 8 7 9 9 9 8 9 7 4 2
13 13 14 14 14 14 14 13 12 11 9 9 8 8 9 10 9 14 15 11 10 7 6 6 9 14 11 12 14 12 9 6 5 8 9 9 10 10 10 12 10 7 6
10 14 14 12 12 12 14 12 11 9 8 8 7 7 8 8 9 12 14 17 8 7 10 6 6 9 12 12 10 11 3 4 8 8 7 10 9 9 9 8 9 9 8
10 8 11 10 8 8 12 13 10 10 7 8 8 7 3 4 5 9 10 11 8 7 8 3 3 5 4 7 11 2 5 7 9 10 10 10 8 6 7 6 8 9 11
13 18 11 9 6 4 7 8 7 7 6 4 4 3 4 4 3 3 4 5 4 5 5 7 2 3 5 2 6 9 7 9 8 8 8 7 6 5 4 8 9 10 10
18 18 19 11 14 14 10 10 5 7 5 2 2 1 3 3 4 6 6 4 3 2 3 4 4 6 7 6 6 6 5 6 7 7 7 6 5 4 8 7 8 7 8
13 15 11 9 12 16 7 4 12 13 12 15 13 8 8 11 8 7 7 6 5 6 3 3 4 4 5 5 5 6 4 7 7 7 7 7 7 6 6 6 8 9 9
21 13 5 12 14 16 15 12 5 7 8 11 11 13 15 10 7 5 5 6 5 2 4 3 4 5 5 5 5 6 6 6 8 6 6 7 7 8 9 10 5 6 7
9 9 10 9 8 8 8 13 10 10 8 7 9 7 9 9 8 6 4 5 2 1 1 2 2 3 2 3 4 4 4 5 7 6 6 7 7 8 8 7 7 6 5
9 8 7 9 10 10 8 9 8 8 8 9 9 5 7 6 5 2 5 5 2 0 1 1 4 4 4 3 3 3 4 4 4 5 6 7 7 7 8 9 9 10 8
12 12 10 11 11 9 9 8 9 8 7 6 6 7 6 6 5 6 5 4 6 6 5 4 4 4 4 4 4 4 5 4 5 6 6 5 5 6 6 7 6 5 4
11 11 14 10 9 10 8 10 9 7 7 8 8 8 8 4 7 7 6 5 5 6 5 4 4 3 3 3 4 4 4 5 5 3 5 5 5 7 8 6 8 7 6
11 10 10 9 9 8 8 9 9 9 8 8 8 5 5 4 6 6 6 5 5 5 5 5 6 6 6 6 7 6 5 5 6 6 6 7 5 6 7 7 7 4 3
11 12 11 9 10 8 8 7 8 9 9 8 7 5 4 5 7 7 6 6 5 5 5 7 8 7 8 8 9 9 10 10 10 10 8 7 7 5 4 5 5 5 5
11 12 11 10 9 9 9 10 10 11 10 9 7 7 6 7 7 8 6 6 6 7 9 9 8 11 9 8 8 9 10 10 9 11 14 11 10 6 7 8 9 10 9
12 12 11 11 10 11 12 11 11 11 11 10 8 7 8 8 8 7 7 7 7 6 8 9 9 9 11 13 13 14 12 12 11 12 10 12 14 15 13 12 10 9 11
13 13 12 11 12 12 12 11 11 10 10 10 9 9 9 9 7 7 7 8 7 7 8 7 6 8 11 10 13 11 11 14 14 13 11 9 10 11 12 14 17 13 14
Wind_Direction
202 200 204 207 209 212 217 219 222 225 225 223 227 232 233 225 217 228 240 242 236 240 243 239 243 235 232 220 225 246 245 239 248 248 241 235 241 233 252 221 230 228 214
197 201 202 204 207 207 214 215 217 221 219 218 220 222 231 220 228 236 237 232 222 236 240 237 230 222 227 234 245 254 244 243 245 258 259 220 235 240 243 250 234 239 227
193 198 201 203 205 213 210 215 210 216 218 215 209 213 220 210 217 227 224 221 218 223 233 235 245 238 235 237 237 241 243 252 255 256 260 269 237 214 221 221 229 233 254
194 197 198 204 205 208 208 212 207 205 211 214 207 209 212 212 204 209 209 209 213 218 224 221 224 232 245 247 248 250 250 263 256 245 246 252 255 260 238 235 228 224 226
203 198 198 198 199 195 194 198 205 203 203 209 202 199 206 212 206 199 206 210 205 216 216 218 220 227 230 255 227 230 249 240 250 271 274 258 246 246 238 241 244 249 221
210 209 192 188 180 185 183 191 193 205 209 201 202 199 195 218 162 161 203 209 214 224 228 227 239 200 224 219 224 249 279 273 275 264 256 245 238 235 241 245 230 223 234
198 216 196 184 178 177 180 189 189 195 199 197 203 203 206 216 149 168 198 215 196 219 226 227 227 228 202 235 205 220 234 234 242 270 267 252 248 237 231 241 237 231 236
192 198 204 197 180 176 176 184 188 190 196 197 200 204 214 214 160 172 187 227 217 219 225 215 225 248 206 216 234 232 240 217 224 227 242 272 269 255 240 228 220 238 252
187 186 203 204 184 174 179 179 183 185 194 200 200 202 210 219 166 173 183 212 231 231 230 234 234 233 211 174 239 250 254 257 163 196 266 300 307 286 272 240 227 215 227
170 185 187 202 203 170 172 173 177 186 191 200 202 204 203 222 168 179 196 231 225 228 221 226 209 247 184 175 216 237 250 257 253 200 223 231 233 229 221 253 232 234 240
171 172 197 194 202 175 164 167 170 183 180 199 196 201 212 207 197 183 197 231 248 242 265 240 243 205 201 198 212 234 247 305 271 265 264 238 229 230 220 212 238 238 234
193 166 173 189 204 172 155 157 163 170 185 190 204 218 201 217 215 189 195 221 261 248 255 275 261 200 198 200 208 238 321 290 259 249 265 264 249 247 244 234 212 241 249
165 141 131 166 199 186 158 154 162 171 193 198 194 225 211 193 216 158 184 205 227 247 262 2 29 103 180 193 225 237 170 236 251 249 247 257 276 267 271 249 239 234 245
164 133 121 131 142 160 166 163 172 174 179 177 200 230 214 205 237 202 199 200 219 216 239 237 90 18 265 350 168 190 211 220 230 251 258 257 273 290 281 266 244 226 238
131 118 122 137 100 33 5 351 61 44 344 167 127 200 302 259 40 353 334 280 263 252 245 246 245 252 249 242 237 247 232 244 238 249 253 277 276 262 256 261 252 258 259
135 133 126 117 110 139 203 75 38 26 33 51 49 35 97 67 54 42 44 49 71 135 223 222 240 242 256 254 252 276 282 231 243 251 260 260 263 265 253 254 254 250 252
137 136 182 147 144 164 153 134 118 64 43 52 58 60 62 66 64 61 68 85 57 265 275 296 318 316 295 300 304 286 271 281 286 288 257 268 265 268 273 265 281 306 261
155 136 172 165 166 128 119 139 162 167 164 133 54 69 85 94 93 97 151 202 162 200 294 290 271 269 289 279 277 280 304 297 293 279 263 267 266 260 259 257 262 247 245
145 142 124 113 114 103 130 143 150 140 141 124 141 153 126 130 129 155 226 285 339 278 158 106 344 336 347 323 325 279 271 291 309 287 248 257 260 265 257 255 248 222 238
109 100 102 108 117 130 133 137 125 124 132 135 106 100 131 182 107 83 54 35 51 43 39 31 12 21 10 4 348 330 320 327 329 336 339 329 316 315 309 309 307 285 272
113 116 114 122 135 137 146 129 123 130 118 99 93 66 5 64 87 83 71 57 51 65 63 83 70 72 39 3 351 335 327 341 336 274 251 264 304 297 283 250 259 266 259
122 121 110 118 115 121 126 122 127 112 115 110 109 107 318 85 81 84 80 64 69 60 47 45 43 38 40 24 9 3 10 10 3 346 337 325 330 320 315 317 326 320 312
115 112 113 109 99 110 117 118 105 111 112 108 110 136 131 112 98 95 89 81 67 59 69 50 28 34 31 28 24 13 8 358 346 337 325 325 321 316 288 266 254 256 251
121 118 120 133 131 123 116 113 106 108 115 109 126 140 124 90 81 68 47 46 42 50 40 44 48 36 24 22 28 20 27 358 320 319 330 316 311 302 303 290 290 292 280
117 107 115 116 110 107 113 106 102 100 92 92 91 79 75 71 64 54 37 40 45 39 55 58 28 32 44 36 27 20 11 336 342 321 322 314 306 307 295 295 290 273 271
128 122 118 115 108 108 109 110 104 98 92 86 81 73 69 66 59 50 43 30 28 50 35 46 58 39 25 36 25 10 352 347 344 329 319 319 328 321 324 327 309 299 295